Simultaneous Nadir Overpasses (SNOs) Predictions

Prediction of SNOs between AQUA and NPP Satellite Orbit:

Table of predicted SNOs for the next 14.0 days since TLE Epoch: 11/11/2023
Index Date (AQUA) Time (AQUA) Lat,Lon (AQUA) SZA (AQUA ) Date (NPP) Time (NPP) Lat,Lon (NPP) SZA (NPP ) Distance(km) Time Diff (sec)
1 11/13/2023 00:06:41 -80.96, -86.71 73.80 11/13/2023 00:05:37 -80.95, -86.69 73.76 0.45 64
2 11/13/2023 00:56:03 80.98, 81.33 106.16 11/13/2023 00:56:20 80.98, 81.30 106.16 0.47 17
3 11/15/2023 13:51:08 80.96,-112.79 106.88 11/15/2023 13:50:16 80.95,-112.87 106.92 1.40 52
4 11/15/2023 14:40:31 -80.99, 55.30 73.18 11/15/2023 14:40:59 -80.99, 55.20 73.18 1.61 28
5 11/18/2023 03:35:36 -80.95,-138.93 72.48 11/18/2023 03:34:56 -80.95,-139.00 72.44 1.27 40
6 11/18/2023 04:24:57 81.00, 29.38 107.45 11/18/2023 04:25:38 81.00, 29.31 107.43 1.18 41
7 11/20/2023 17:20:00 80.98,-164.66 108.09 11/20/2023 17:19:34 80.98,-164.61 108.10 1.05 26
8 11/20/2023 18:09:22 -81.03, 3.84 72.02 11/20/2023 18:10:16 -81.03, 3.88 72.06 0.75 54
9 11/23/2023 07:04:25 -80.98, 169.32 71.35 11/23/2023 07:04:14 -80.98, 169.19 71.32 2.33 11



Historial Predications of SNOs between AQUA and NPP
